View from above orbital plane
|
View from above satellite
|
Ground track
|
The orbit data is extracted from the following two-line orbital elements,
1 28230U 04014A 21019.83301000 .00000088 00000-0 96957-5 0 9999
2 28230 89.8153 93.6874 0002968 104.1384 256.0169 14.78780462360267
Epoch (UTC): | 19 January 2021 19:59:32 |
Eccentricity: | 0.0002968 |
inclination: | 89.8153° |
perigee height: | 631 km |
apogee height: | 635 km |
right ascension of ascending node: | 93.6874° |
argument of perigee: | 104.1384° |
revolutions per day: | 14.78780462 |
mean anomaly at epoch: | 256.0169° |
orbit number at epoch: | 36026 |
The dashed part of the orbit path shows where the satellite is in the earth's shadow,
|
|